パンスターズ彗星

500P/PanSTARRS (2025)

English version
Home page
Updated on August 9, 2025

---------------------------------------------------------------------

・ プロフィール

符号 500P/2025 B3
検出日 2025年1月24日、2月22日
検出光度 21.3等、20.1等
検出者 T. Kobayashi (Oizumi, Gunma-ken, Japan), Mt. Lemmon, M. Jaeger, G. Rhemann, and E. Prosperi (Martinsberg, Oed, Austria)

・ 写真集

・ 軌道要素

                    Epoch = 2025 Mar. 26.0 TT
     T = 2025 Mar. 31.93143 TT        Peri. =  46.68240
     e = 0.3758977                    Node  = 111.53024 2000.0
     q = 2.1317498 AU                 Incl. =   2.30150
       a =  3.4157055 AU   n = 0.15612895   P =   6.31 years

・ 光度変化

        m1 = 16.5 + 5 logΔ + 10.0 log r

---------------------------------------------------------------------

軌道要素は、CBET 5516に掲載されたものです。
光度グラフはComet for Windowsで作成したものです。

---------------------------------------------------------------------

Copyright(C) Seiichi Yoshida (comet@aerith.net). All rights reserved.